Location: Holyhead Bay
(53.3667°N, 4.6667°W)
Time: 05:17:26
(UTC+00:00)

CZ-2C R/B - Pass Details

Date: 24 November 2020
Orbit: 705 x 907 km, 98.1° (Epoch: 23 January)

Event Time Altitude Azimuth Distance (km) Brightness Sun altitude
Rises 16:52:38 0° 110° (ESE) 3,247 5.8 -6.3°
Reaches altitude 10° 16:55:48 10° 89° (E) 2,287 4.9 -6.7°
Maximum altitude 16:58:46 16° 53° (NE) 1,871 4.4 -7.1°
Drops below altitude 10° 17:01:42 10° 16° (NNE) 2,235 5.0 -7.5°
Sets 17:04:43 0° 355° (N) 3,138 6.0 -7.9°
